Regional Weather Roundup
Issued by NWS

Home | Current Version | Previous Version | Text Only | Print | Product List | Glossary On
Versions: 1 2 3 4 5 6 7 8 9 10 11 12 13 14 15 16 17 18 19 20 21 22 23 24 25 26 27 28 29 30 31 32 33 34 35 36 37 38 39 40 41 42 43 44 45 46 47 48 49 50
000
ASUS44 KOUN 010510
RWROK

WEATHER ROUNDUP FOR OKLAHOMA
NATIONAL WEATHER SERVICE NORMAN OK
1200 AM CDT SAT AUG 01 2015

NOTE: "FAIR" INDICATES FEW OR NO CLOUDS BELOW 12,000 FEET WITH NO
      SIGNIFICANT WEATHER AND/OR OBSTRUCTIONS TO VISIBILITY.

OKZ001>007-009>012-014-015-017-010600-
NORTHWEST OKLAHOMA AND THE PANHANDLE

CITY           SKY/WX    TMP DP  RH WIND       PRES   REMARKS
GAGE           MOCLDY    73  72  96 W5        30.15R
GUYMON         MOCLDY    72  66  81 S7        30.19R
ENID/WOODRING  CLEAR     72  70  94 CALM      30.09S
$$

OKZ016-021>023-033>039-044-045-010600-
SOUTHWEST OKLAHOMA

CITY           SKY/WX    TMP DP  RH WIND       PRES   REMARKS
LAWTON/REGL    CLOUDY    74  67  78 CALM      30.08S
LAWTON/FT SILL CLOUDY    74  69  82 CALM      30.07R
FREDERICK      MOCLDY    74  72  93 N7        30.06R
CLINTON        CLOUDY    74  70  87 NE5       30.14S
HOBART         CLOUDY    74  69  85 NE5       30.12R
ALTUS AFB      CLOUDY    73  69  88 NE2       30.10R
$$

OKZ018>020-024>031-010600-
CENTRAL OKLAHOMA

CITY           SKY/WX    TMP DP  RH WIND       PRES   REMARKS
OKLAHOMA CITY  MOCLDY    73  72  96 CALM      30.09S
OKC/WILEY POST PTCLDY    74  71  91 CALM      30.10R
OKC/TINKER AFB PTCLDY    75  71  86 N2        30.09R
STILLWATER     PTCLDY    75  73  93 CALM      30.09R
GUTHRIE        PTCLDY    75  73  93 MISG      30.10R
$$

OKZ008-013-054>072-010600-
NORTHEAST OKLAHOMA

CITY           SKY/WX    TMP DP  RH WIND       PRES   REMARKS
TULSA          MOCLDY    77  71  82 E5        30.06F
TULSA/JONES    MOCLDY    75  71  87 CALM      30.07S
PONCA CITY     CLEAR     76  72  87 E3        30.08F
BARTLESVILLE   CLEAR     71  71 100 CALM      30.09S
MUSKOGEE       MOCLDY    75  70  84 CALM      30.09R
$$

OKZ032-040>043-046>053-073>077-010600-
SOUTH CENTRAL/SOUTHEAST OKLAHOMA

CITY           SKY/WX    TMP DP  RH WIND       PRES   REMARKS
ARDMORE/DWNTWN MOCLDY    79  66  65 NE3       30.06S
MCALESTER      MOCLDY    74  70  87 CALM      30.08R
$$



USA.gov is the U.S. government's official web portal to all federal, state and local government web resources and services.